HK6REC-23 Weather Reports


time (UTC)temp
F
wind
direction
speed
knots
gust
knots
rain 1hr
in
rain 24hr
in
rain mn
in
humidity
%
barometer
mb
20260507113409 60 175 0.9 0.9 0.00 0.00 0.00 90 1015.0
20260507112408 55 234 0.0 0.0 0.00 0.00 0.00 87 1015.0
20260507111407 58 234 0.0 0.0 0.00 0.00 0.00 87 1015.0
20260507110406 53 234 0.0 0.0 0.00 0.00 0.00 90 1015.0
20260507105405 53 234 0.0 0.0 0.00 0.00 0.00 90 1015.0
20260507104404 55 234 0.0 0.0 0.00 0.00 0.00 90 1015.0
20260507103403 58 234 0.0 0.0 0.00 0.00 0.00 90 1015.0
20260507102402 55 270 0.0 0.0 0.00 0.00 0.00 86 1015.0
20260507101401 58 270 0.0 0.0 0.00 0.00 0.00 86 1015.0
20260507100400 53 270 0.0 0.0 0.00 0.00 0.00 89 1015.0
20260507095359 53 270 0.0 0.0 0.00 0.00 0.00 89 1015.0
20260507094358 55 270 0.0 0.0 0.00 0.00 0.00 89 1015.0
20260507093357 58 270 0.0 0.0 0.00 0.00 0.00 89 1015.0
20260507092356 55 252 0.9 0.0 0.00 0.00 0.00 85 1015.0
20260507091355 58 252 0.9 0.0 0.00 0.00 0.00 85 1015.0
20260507090354 52 252 0.9 0.0 0.00 0.00 0.00 88 1015.0
20260507085353 52 252 0.9 0.0 0.00 0.00 0.00 88 1015.0
20260507084353 52 252 0.9 0.0 0.00 0.00 0.00 88 1015.0
20260507083352 54 252 0.9 0.0 0.00 0.00 0.00 88 1015.0
20260507082350 54 278 0.9 0.0 0.00 0.00 0.00 88 1015.0
20260507081350 54 278 0.9 0.0 0.00 0.00 0.00 88 1015.0
20260507080349 53 278 0.9 0.0 0.00 0.00 0.00 92 1015.0
20260507075348 56 278 0.9 0.0 0.00 0.00 0.00 92 1015.0
20260507074347 59 278 0.9 0.0 0.00 0.00 0.00 92 1015.0
20260507073346 53 278 0.9 0.0 0.00 0.00 0.00 93 1015.0
20260507072345 53 309 0.9 0.9 0.00 0.00 0.00 93 1015.0
20260507071344 53 309 0.9 0.9 0.00 0.00 0.00 93 1015.0
20260507070343 55 309 0.9 0.9 0.00 0.00 0.00 93 1015.0
20260507065342 54 309 0.9 0.9 0.00 0.00 0.00 91 1015.0
20260507064341 57 309 0.9 0.9 0.00 0.00 0.00 91 1015.0
20260507063340 60 309 0.9 0.9 0.00 0.00 0.00 91 1015.0
20260507062339 56 307 0.9 0.9 0.00 0.00 0.00 88 1015.0
20260507061338 59 307 1.7 0.9 0.00 0.00 0.00 88 1015.0
20260507060337 54 307 1.7 0.9 0.00 0.00 0.00 91 1015.0
20260507055336 54 307 1.7 0.9 0.00 0.00 0.00 91 1015.0
20260507054335 54 301 1.7 0.9 0.00 0.00 0.00 91 1016.0
20260507053334 54 303 0.9 0.9 0.00 0.00 0.00 85 1016.0
20260507052333 57 303 0.9 0.9 0.00 0.00 0.00 85 1016.0
20260507051332 60 303 1.7 1.7 0.00 0.00 0.00 85 1016.0
20260507050331 54 303 1.7 1.7 0.00 0.00 0.00 88 1016.0
20260507045330 54 303 1.7 1.7 0.00 0.00 0.00 88 1016.0
20260507044329 56 303 0.9 0.9 0.00 0.00 0.00 88 1016.0
20260507043328 59 303 1.7 1.7 0.00 0.00 0.00 88 1016.0
20260507042327 57 298 2.6 2.6 0.00 0.00 0.00 82 1016.0
20260507041326 60 298 2.6 2.6 0.00 0.00 0.00 82 1016.0
20260507040325 54 298 2.6 2.6 0.00 0.00 0.00 83 1016.0
20260507035324 54 298 2.6 2.6 0.00 0.00 0.00 83 1016.0
20260507034323 54 298 2.6 2.6 0.00 0.00 0.00 83 1016.0
20260507033322 56 298 2.6 2.6 0.00 0.00 0.00 83 1016.0
20260507032320 56 294 2.6 2.6 0.00 0.00 0.00 83 1016.0
20260507031319 56 294 2.6 2.6 0.00 0.00 0.00 83 1016.0
20260507030318 55 294 2.6 2.6 0.00 0.00 0.00 88 1016.0
20260507025317 58 294 2.6 2.6 0.00 0.00 0.00 88 1016.0
20260507024316 61 294 2.6 2.6 0.00 0.00 0.00 88 1016.0
20260507023315 55 294 2.6 2.6 0.00 0.00 0.00 82 1016.0
20260507022314 55 301 2.6 2.6 0.00 0.00 0.00 82 1015.0
20260507021313 55 301 2.6 2.6 0.00 0.00 0.00 82 1015.0
20260507020312 57 301 2.6 2.6 0.00 0.00 0.00 88 1015.0
20260507015311 60 301 2.6 2.6 0.00 0.00 0.00 88 1015.0
20260507014310 56 298 3.5 3.5 0.00 0.00 0.00 83 1015.0
20260507013309 59 298 3.5 3.5 0.00 0.00 0.00 83 1015.0
20260507012308 62 298 3.5 3.5 0.00 0.00 0.00 83 1014.0
20260507011307 56 298 3.5 3.5 0.00 0.00 0.00 85 1014.0
20260507010306 59 298 3.5 3.5 0.00 0.00 0.00 85 1014.0
20260507005306 62 298 3.5 3.5 0.00 0.00 0.00 85 1014.0
20260507004304 56 273 3.5 6.1 0.00 0.00 0.00 76 1014.0
20260507003303 59 273 3.5 6.1 0.00 0.00 0.00 76 1014.0
20260507002305 62 273 3.5 6.1 0.00 0.00 0.00 76 1013.0
20260507001301 65 273 3.5 6.1 0.00 0.00 0.00 76 1013.0
20260507000300 57 273 3.5 6.1 0.00 0.00 0.00 75 1013.0
20260506235259 57 273 3.5 6.1 0.00 0.00 0.00 75 1013.0
20260506234258 59 286 2.6 3.5 0.00 0.00 0.00 75 1013.0
20260506233257 62 286 2.6 3.5 0.00 0.00 0.00 75 1013.0
20260506232257 65 286 2.6 3.5 0.00 0.00 0.00 75 1012.0
20260506231256 68 286 2.6 3.5 0.00 0.00 0.00 75 1012.0
20260506230255 59 286 2.6 3.5 0.00 0.00 0.00 74 1012.0
20260506225254 59 286 2.6 3.5 0.00 0.00 0.00 74 1012.0
20260506224253 58 286 2.6 3.5 0.00 0.00 0.00 74 1011.0
20260506223251 61 286 2.6 3.5 0.00 0.00 0.00 74 1011.0
20260506222250 61 280 1.7 3.5 0.00 0.00 0.00 74 1010.0
20260506221250 61 280 1.7 3.5 0.00 0.00 0.00 74 1010.0
20260506220249 63 280 1.7 3.5 0.00 0.00 0.00 74 1010.0
20260506215247 63 280 1.7 3.5 0.00 0.00 0.00 74 1010.0
20260506214247 62 280 0.9 3.5 0.00 0.00 0.00 74 1010.0
20260506213246 65 280 1.7 3.5 0.00 0.00 0.00 74 1010.0
20260506212245 65 266 0.9 4.3 0.00 0.00 0.00 74 1009.0
20260506211244 65 266 0.9 4.3 0.00 0.00 0.00 74 1009.0
20260506210243 67 266 0.9 4.3 0.00 0.00 0.00 74 1009.0
20260506205242 66 266 0.9 4.3 0.00 0.00 0.00 74 1009.0
20260506204241 69 266 0.9 4.3 0.00 0.00 0.00 74 1009.0
20260506203240 72 266 0.9 4.3 0.00 0.00 0.00 74 1009.0
20260506202239 70 259 0.9 2.6 0.00 0.00 0.00 69 1009.0
20260506201238 73 259 0.9 2.6 0.00 0.00 0.00 69 1009.0
20260506200237 68 259 0.9 2.6 0.00 0.00 0.00 69 1009.0
20260506195236 68 259 0.9 2.6 0.00 0.00 0.00 69 1009.0
20260506194235 70 259 0.9 2.6 0.00 0.00 0.00 69 1010.0
20260506193234 73 259 0.9 2.6 0.00 0.00 0.00 69 1010.0
20260506192233 71 249 0.0 2.6 0.00 0.00 0.00 69 1010.0
20260506191232 74 249 0.0 2.6 0.00 0.00 0.00 69 1010.0
20260506190231 71 249 0.0 2.6 0.00 0.00 0.00 72 1010.0
20260506185231 71 249 0.0 2.6 0.00 0.00 0.00 72 1010.0
20260506184229 70 249 0.0 2.6 0.00 0.00 0.00 72 1010.0
20260506183228 73 249 0.0 2.6 0.00 0.00 0.00 72 1010.0
20260506182227 73 178 0.0 2.6 0.00 0.00 0.00 72 1011.0
20260506181226 72 178 0.0 2.6 0.00 0.00 0.00 72 1011.0
20260506180225 75 178 0.0 2.6 0.00 0.00 0.00 72 1011.0
20260506175224 72 178 0.0 2.6 0.00 0.00 0.00 72 1011.0
20260506174223 75 171 0.0 2.6 0.00 0.00 0.00 72 1011.0
20260506173222 71 152 0.9 2.6 0.00 0.00 0.00 72 1011.0
20260506172221 74 152 0.9 2.6 0.00 0.00 0.00 72 1012.0
20260506171220 77 152 0.9 2.6 0.00 0.00 0.00 72 1012.0
20260506170219 73 152 0.9 2.6 0.00 0.00 0.00 72 1012.0
20260506165218 71 152 0.9 2.6 0.00 0.00 0.00 64 1012.0
20260506164218 74 152 0.9 2.6 0.00 0.00 0.00 64 1012.0
20260506163217 71 152 0.9 2.6 0.00 0.00 0.00 69 1012.0
20260506162216 71 140 1.7 2.6 0.00 0.00 0.00 69 1014.0
20260506161215 70 140 0.9 2.6 0.00 0.00 0.00 69 1014.0
20260506160214 73 140 1.7 2.6 0.00 0.00 0.00 69 1014.0
20260506155213 70 140 0.9 2.6 0.00 0.00 0.00 69 1013.0
20260506154212 73 140 1.7 2.6 0.00 0.00 0.00 69 1014.0
20260506153211 67 126 0.9 0.9 0.00 0.00 0.00 80 1014.0
20260506152210 70 126 1.7 1.7 0.00 0.00 0.00 80 1015.0
20260506151209 67 126 0.9 0.9 0.00 0.00 0.00 80 1015.0
20260506150208 70 126 1.7 1.7 0.00 0.00 0.00 80 1015.0
20260506145207 66 126 0.9 0.9 0.00 0.00 0.00 78 1015.0
20260506144206 69 126 1.7 1.7 0.00 0.00 0.00 78 1015.0
20260506143205 60 126 1.7 1.7 0.00 0.00 0.00 85 1015.0
20260506142204 60 117 1.7 0.9 0.00 0.00 0.00 85 1016.0
20260506141203 62 117 0.9 0.9 0.00 0.00 0.00 85 1016.0
20260506140202 65 117 1.7 0.9 0.00 0.00 0.00 85 1016.0
20260506135201 62 117 0.9 0.9 0.00 0.00 0.00 86 1016.0
20260506134200 65 117 1.7 0.9 0.00 0.00 0.00 86 1016.0
20260506133159 58 117 1.7 0.9 0.00 0.00 0.00 90 1016.0
20260506132158 58 125 0.9 0.9 0.00 0.00 0.00 90 1016.0
20260506131157 60 125 0.9 0.9 0.00 0.00 0.00 90 1016.0
20260506130156 63 125 0.9 0.9 0.00 0.00 0.00 90 1016.0
20260506125155 59 125 0.9 0.9 0.00 0.00 0.00 93 1016.0
20260506124154 62 125 0.9 0.9 0.00 0.00 0.00 93 1016.0
20260506123153 55 125 0.9 0.9 0.00 0.00 0.00 95 1016.0
20260506122152 55 194 0.0 0.0 0.00 0.00 0.00 95 1016.0
20260506121151 57 194 0.0 0.0 0.00 0.00 0.00 95 1016.0
20260506120150 60 194 0.0 0.0 0.00 0.00 0.00 95 1016.0